CZ-7A R/B

基本信息
目录编号:
69236
目录名称:
CZ-7A R/B
国际标识:
2026-116B
轨道中心:
EARTH
物体状态:
在轨
发射日期:
2026-05-26 UTC
国别:
中国 (CN)
轨道信息
数据来源: 国际轨道数据
星历时间: 2026-06-24T12:39:12+0800
半长轴: 23057.804km
偏心率: 0.7180659
轨道倾角: 19.572°
近地点辐角: 200.878°
升交点赤经: 137.058°
平近点角: 100.077°
近地点: 122.644km
远地点: 33236.69km
周期: 580.747分钟
每日圈数: 2.479567
详细信息
发射场:
WSC
轨道高度:
LEO
数据来源:
AOE Integration Group
参考系:
TEME
时间系统:
UTC
历元类型:
SGP4
2D轨道图
3D轨道图
轨道高度分析图
轨道倾角分析图
轨道综合分析图
查看轨道综合分析图